When you browse on this site, cookies collect data to enhance your experience and personalize the content and advertising you see.
Visit our Privacy Policy to learn more. By continuing to use the site, you agree to this use of cookies and data.

Hourly Weather Bratislava

Today, 12 July, Sunday

Time Temperature Precipitation Wind Pressure Humidity
00:00 +12°C° 0 mm 4 mps 753 mmHg 91%
01:00 +12°C° 0 mm 4 mps 753 mmHg 91%
02:00 +11°C° 0 mm 4 mps 753 mmHg 91%
03:00 +11°C° 0 mm 4 mps 753 mmHg 91%
04:00 +11°C° 0 mm 4 mps 753 mmHg 90%
05:00 +12°C° 0 mm 4 mps 753 mmHg 85%
06:00 +13°C° 0 mm 5 mps 754 mmHg 81%
07:00 +15°C° 0 mm 5 mps 754 mmHg 76%
08:00 +16°C° 0 mm 5 mps 754 mmHg 68%
09:00 +19°C° 0 mm 5 mps 754 mmHg 60%
10:00 +20°C° 0 mm 6 mps 754 mmHg 52%
11:00 +21°C° 0 mm 5 mps 754 mmHg 50%
12:00 +22°C° 0 mm 5 mps 754 mmHg 49%
13:00 +22°C° 0 mm 5 mps 754 mmHg 47%
14:00 +22°C° 0 mm 5 mps 754 mmHg 47%
15:00 +22°C° 0 mm 5 mps 754 mmHg 47%
16:00 +22°C° 0 mm 5 mps 754 mmHg 48%
17:00 +21°C° 0 mm 4 mps 754 mmHg 54%
18:00 +20°C° 0 mm 3 mps 754 mmHg 61%
19:00 +19°C° 0 mm 2 mps 754 mmHg 67%
20:00 +18°C° 0 mm 2 mps 754 mmHg 69%
21:00 +16°C° 0 mm 2 mps 754 mmHg 72%
22:00 +15°C° 0 mm 2 mps 754 mmHg 74%
23:00 +15°C° 0 mm 2 mps 754 mmHg 76%

Tomorrow, 13 July, Monday

Time Temperature Precipitation Wind Pressure Humidity
00:00 +14°C° 0 mm 2 mps 754 mmHg 77%
01:00 +13°C° 0 mm 2 mps 754 mmHg 79%
02:00 +13°C° 0 mm 2 mps 754 mmHg 81%
03:00 +13°C° 0 mm 2 mps 754 mmHg 83%
04:00 +12°C° 0 mm 2 mps 754 mmHg 85%
05:00 +14°C° 0 mm 2 mps 754 mmHg 80%
06:00 +15°C° 0 mm 2 mps 754 mmHg 74%
07:00 +17°C° 0 mm 3 mps 754 mmHg 69%
08:00 +18°C° 0 mm 3 mps 754 mmHg 62%
09:00 +20°C° 0 mm 3 mps 754 mmHg 54%
10:00 +22°C° 0 mm 3 mps 754 mmHg 47%
11:00 +23°C° 0 mm 2 mps 753 mmHg 44%
12:00 +24°C° 0 mm 2 mps 753 mmHg 42%
13:00 +24°C° 0 mm 2 mps 753 mmHg 40%
14:00 +24°C° 0 mm 3 mps 752 mmHg 41%
15:00 +24°C° 0 mm 3 mps 752 mmHg 42%
16:00 +24°C° 0 mm 3 mps 751 mmHg 43%
17:00 +22°C° 0 mm 3 mps 751 mmHg 50%
18:00 +21°C° 0 mm 2 mps 751 mmHg 57%
19:00 +19°C° 0 mm 2 mps 751 mmHg 64%
20:00 +18°C° 0 mm 2 mps 751 mmHg 67%
21:00 +16°C° 0 mm 2 mps 751 mmHg 69%
22:00 +15°C° 0 mm 1 mps 751 mmHg 72%
23:00 +15°C° 0 mm 1 mps 751 mmHg 73%

Day after tomorrow, 14 July, Tuesday

Time Temperature Precipitation Wind Pressure Humidity
00:00 +14°C° 0 mm 1 mps 751 mmHg 75%
01:00 +14°C° 0 mm 1 mps 751 mmHg 77%
02:00 +13°C° 0 mm 1 mps 751 mmHg 79%
03:00 +13°C° 0 mm 1 mps 751 mmHg 82%
04:00 +12°C° 0 mm 1 mps 750 mmHg 84%
05:00 +14°C° 0 mm 1 mps 750 mmHg 79%
06:00 +15°C° 0 mm 1 mps 750 mmHg 75%
07:00 +18°C° 0 mm 1 mps 750 mmHg 70%
08:00 +20°C° 0 mm 1 mps 750 mmHg 65%
09:00 +22°C° 0 mm 1 mps 750 mmHg 59%
10:00 +23°C° 0 mm 1 mps 750 mmHg 53%
11:00 +24°C° 0 mm 1 mps 750 mmHg 49%
12:00 +25°C° 0 mm 1 mps 749 mmHg 46%
13:00 +26°C° 0 mm 1 mps 749 mmHg 42%
14:00 +26°C° 0 mm 1 mps 749 mmHg 41%
15:00 +27°C° 0 mm 1 mps 748 mmHg 40%
16:00 +27°C° 0 mm 1 mps 748 mmHg 39%
17:00 +25°C° 0 mm 2 mps 748 mmHg 46%
18:00 +24°C° 0 mm 2 mps 748 mmHg 53%
19:00 +21°C° 0 mm 2 mps 748 mmHg 60%
20:00 +20°C° 0 mm 2 mps 748 mmHg 63%
21:00 +19°C° 0 mm 2 mps 748 mmHg 66%
22:00 +17°C° 0 mm 2 mps 748 mmHg 70%
23:00 +17°C° 0 mm 2 mps 748 mmHg 71%

15 July, Wednesday

Time Temperature Precipitation Wind Pressure Humidity
00:00 +17°C° 0 mm 2 mps 748 mmHg 72%
01:00 +16°C° 0 mm 2 mps 748 mmHg 74%
02:00 +16°C° 0 mm 2 mps 748 mmHg 75%
03:00 +15°C° 0 mm 2 mps 748 mmHg 76%
04:00 +15°C° 0 mm 2 mps 748 mmHg 77%
05:00 +16°C° 0 mm 2 mps 748 mmHg 74%
06:00 +17°C° 0 mm 2 mps 748 mmHg 71%
07:00 +18°C° 0 mm 3 mps 748 mmHg 68%
08:00 +20°C° 0 mm 3 mps 748 mmHg 64%
09:00 +21°C° 0 mm 3 mps 748 mmHg 60%
10:00 +24°C° 0 mm 3 mps 748 mmHg 56%
11:00 +25°C° 0 mm 3 mps 747 mmHg 53%
12:00 +25°C° 0 mm 3 mps 747 mmHg 50%
13:00 +26°C° 0 mm 4 mps 747 mmHg 48%
14:00 +27°C° 0 mm 4 mps 747 mmHg 47%
15:00 +27°C° 0 mm 4 mps 746 mmHg 45%
16:00 +27°C° 0 mm 4 mps 746 mmHg 44%
17:00 +26°C° 0 mm 3 mps 746 mmHg 50%
18:00 +25°C° 0 mm 3 mps 746 mmHg 56%
19:00 +24°C° 0 mm 2 mps 746 mmHg 62%
20:00 +23°C° 0.1 mm 2 mps 746 mmHg 65%
21:00 +21°C° 0.1 mm 2 mps 746 mmHg 68%
22:00 +19°C° 0.1 mm 3 mps 746 mmHg 71%
23:00 +19°C° 0.1 mm 3 mps 746 mmHg 75%

16 July, Thursday

Time Temperature Precipitation Wind Pressure Humidity
00:00 +19°C° 0.1 mm 3 mps 746 mmHg 78%
01:00 +19°C° 0.1 mm 3 mps 746 mmHg 81%
02:00 +18°C° 0.1 mm 3 mps 746 mmHg 83%
03:00 +18°C° 0.1 mm 3 mps 746 mmHg 85%
04:00 +18°C° 0.1 mm 3 mps 746 mmHg 87%
05:00 +18°C° 0.3 mm 3 mps 746 mmHg 87%
06:00 +17°C° 0.3 mm 3 mps 747 mmHg 88%
07:00 +17°C° 0.3 mm 3 mps 747 mmHg 89%
08:00 +18°C° 0.2 mm 4 mps 747 mmHg 83%
09:00 +19°C° 0.2 mm 5 mps 747 mmHg 77%
10:00 +20°C° 0.2 mm 6 mps 747 mmHg 71%
11:00 +20°C° 0.1 mm 6 mps 747 mmHg 67%
12:00 +21°C° 0.1 mm 6 mps 748 mmHg 64%
13:00 +22°C° 0.1 mm 6 mps 748 mmHg 61%
14:00 +22°C° 0 mm 6 mps 747 mmHg 59%
15:00 +22°C° 0 mm 6 mps 747 mmHg 57%
16:00 +22°C° 0 mm 6 mps 747 mmHg 56%
17:00 +21°C° 0 mm 5 mps 747 mmHg 60%
18:00 +20°C° 0 mm 5 mps 747 mmHg 65%
19:00 +19°C° 0 mm 4 mps 747 mmHg 70%
20:00 +18°C° 0 mm 4 mps 747 mmHg 72%
21:00 +17°C° 0 mm 4 mps 748 mmHg 75%
22:00 +16°C° 0 mm 3 mps 748 mmHg 77%
23:00 +14°C° 0 mm 3 mps 748 mmHg 79%

17 July, Friday

Time Temperature Precipitation Wind Pressure Humidity
00:00 +13°C° 0 mm 3 mps 748 mmHg 81%
01:00 +13°C° 0 mm 3 mps 748 mmHg 82%
02:00 +12°C° 0 mm 3 mps 748 mmHg 84%
03:00 +12°C° 0 mm 3 mps 748 mmHg 85%
04:00 +12°C° 0 mm 3 mps 748 mmHg 86%
05:00 +13°C° 0 mm 4 mps 748 mmHg 79%
06:00 +15°C° 0 mm 4 mps 748 mmHg 73%
07:00 +16°C° 0 mm 5 mps 748 mmHg 67%
08:00 +17°C° 0 mm 6 mps 748 mmHg 63%
09:00 +20°C° 0 mm 6 mps 748 mmHg 59%
10:00 +21°C° 0 mm 7 mps 748 mmHg 55%
11:00 +21°C° 0 mm 7 mps 748 mmHg 56%
12:00 +21°C° 0 mm 7 mps 748 mmHg 57%
13:00 +21°C° 0 mm 7 mps 748 mmHg 59%
14:00 +20°C° 0 mm 7 mps 748 mmHg 62%
15:00 +20°C° 0 mm 7 mps 748 mmHg 65%
16:00 +18°C° 0 mm 7 mps 748 mmHg 69%
17:00 +19°C° 0 mm 6 mps 748 mmHg 70%
18:00 +19°C° 0 mm 5 mps 748 mmHg 72%
19:00 +19°C° 0 mm 5 mps 748 mmHg 73%
20:00 +19°C° 0 mm 5 mps 748 mmHg 74%
21:00 +17°C° 0 mm 5 mps 749 mmHg 75%
22:00 +17°C° 0 mm 5 mps 749 mmHg 76%
23:00 +17°C° 0 mm 5 mps 749 mmHg 78%
Show more